Temp_Advection
nan nan nan nan nan nan nan nan nan nan nan nan nan nan nan nan nan nan nan nan nan nan nan nan nan nan nan nan nan nan nan nan nan nan nan nan nan nan nan nan nan nan nan nan nan nan nan nan nan nan nan nan nan nan nan nan nan nan nan nan nan nan nan nan nan nan nan nan nan
nan 0 0 0 0 0 -0 -0 0 0 0 0 0 -0 -0 -0 -0 0 0 1 1 1 1 1 1 1 0 0 1 1 1 0 0 0 0 0 1 1 1 1 1 1 1 1 1 1 1 1 1 0 0 -0 -0 -0 -0 -0 -0 -0 -1 -1 -0 0 0 0 0 0 0 0 nan
nan -0 0 0 0 0 -0 -0 -0 0 0 0 0 0 0 0 0 0 1 1 1 1 1 1 0 0 0 0 0 1 1 1 0 0 0 0 0 1 1 1 1 1 1 1 1 1 1 1 1 0 0 0 -0 -0 -0 -0 0 0 -0 -1 -1 -0 0 -0 -0 0 0 1 nan
nan -0 -0 0 0 -0 -0 -0 -0 0 0 0 0 0 0 1 1 1 1 1 1 1 1 0 0 -0 0 0 0 0 0 1 1 1 0 0 0 1 1 1 0 -0 0 0 0 1 1 1 1 0 0 0 -0 -0 -0 0 0 0 0 -0 -0 -0 0 0 -0 0 0 0 nan
nan -0 -0 -0 -0 -0 -0 -0 0 0 0 0 0 0 0 1 1 1 1 1 0 1 1 0 0 0 0 1 0 0 0 1 1 1 0 -0 -0 0 0 0 0 -0 -0 0 0 0 0 0 0 0 0 0 -0 -0 -0 0 0 0 0 -0 -0 0 0 0 0 0 0 0 nan
nan -0 -0 -0 -0 -0 -0 0 0 -0 0 0 -0 -0 0 0 0 0 0 0 0 0 0 0 1 1 1 1 0 0 0 1 1 1 1 0 -0 0 0 0 0 0 0 0 0 0 0 0 0 0 0 0 -0 -0 0 0 0 0 0 -0 -0 -0 0 0 0 0 0 0 nan
nan -0 -0 -0 -0 -0 -0 0 -0 -0 -0 -0 -0 -1 -1 -1 -1 -0 -0 0 0 0 1 1 1 1 1 1 1 1 1 1 1 1 2 1 0 0 0 0 0 1 1 1 1 1 0 0 0 0 0 0 -0 -0 0 0 0 -0 -0 -0 -0 -0 0 0 0 0 0 0 nan
nan -0 -0 -0 -0 -0 -0 -0 -0 -0 -0 -1 -1 -1 -1 -1 -1 -0 0 1 1 1 1 2 2 2 2 2 2 2 1 1 1 1 1 1 1 0 1 1 1 1 1 1 1 1 1 0 0 0 0 0 0 -0 0 0 0 0 -0 -0 -0 0 0 0 0 0 0 0 nan
nan -0 -1 -0 -0 -0 -0 -0 -0 -1 -1 -1 -1 -1 -1 -0 0 1 1 1 1 2 2 2 2 2 2 3 3 2 2 1 1 1 1 1 0 0 1 1 1 1 0 1 1 1 1 1 0 0 0 0 0 0 0 0 0 0 -0 -0 -0 0 0 0 0 0 0 0 nan
nan -1 -1 -1 -0 -0 -0 -0 -0 -1 -1 -1 -1 -0 0 1 1 1 1 1 1 2 2 2 2 2 2 3 2 2 2 2 1 1 0 0 0 0 0 0 0 0 0 0 1 1 1 1 1 1 1 1 1 1 1 1 0 0 0 -0 -0 -0 0 0 0 0 0 0 nan
nan -1 -1 -1 -1 -0 -0 -0 -0 -1 -1 -1 -0 0 0 1 1 1 1 1 1 1 1 1 1 1 1 2 2 2 2 2 2 1 0 0 0 0 0 1 1 1 1 2 2 2 2 2 1 1 1 1 1 1 1 1 1 0 0 0 0 -0 0 0 0 0 0 0 nan
nan -1 -1 -1 -0 -0 -0 -0 -0 -1 -0 -0 0 0 0 1 1 1 1 1 1 1 1 1 1 1 1 1 1 1 1 1 2 1 1 1 1 2 2 2 3 3 3 3 3 3 2 2 2 1 1 1 1 1 1 1 0 0 -0 0 0 0 -0 0 0 0 0 0 nan
nan -1 -0 -0 0 -0 -0 -0 -1 -1 -0 0 0 0 0 0 0 1 1 1 0 1 1 1 1 1 0 0 0 1 1 1 1 2 3 3 4 4 4 4 4 4 4 3 3 3 3 2 2 1 1 1 1 1 1 0 0 0 0 0 0 0 -0 0 0 0 0 0 nan
nan -0 -0 0 0 -0 -0 -1 -1 -0 -0 0 0 0 0 0 1 1 1 0 0 0 1 0 1 1 1 0 1 1 1 1 1 2 4 5 5 5 5 4 4 3 3 2 2 2 2 1 1 1 1 1 1 1 1 0 0 0 0 0 0 0 -0 -0 0 0 0 0 nan
nan -0 0 0 -0 -0 -1 -1 -1 -0 0 0 0 0 0 0 0 0 1 0 0 0 0 0 0 1 1 1 1 1 1 1 2 2 3 4 4 4 4 4 3 3 2 1 1 1 1 1 1 1 1 0 0 0 0 0 0 0 0 0 0 0 0 0 0 0 0 -0 nan
nan -0 0 -0 -0 -0 -1 -1 -0 -0 0 0 0 0 0 0 0 0 0 0 0 0 0 0 0 0 0 1 1 1 1 1 2 2 2 2 1 1 2 3 3 2 1 0 0 0 0 0 0 0 0 0 0 0 0 0 0 0 0 0 -0 -0 0 -0 -0 -0 -0 -0 nan
nan 0 0 -0 -0 -0 -0 -0 -0 -0 0 0 0 0 0 0 0 0 0 0 0 0 0 0 0 0 0 0 1 1 1 1 1 2 2 1 0 0 1 1 2 2 1 -0 -0 -0 -0 -0 0 0 0 0 0 0 0 0 0 0 0 0 -0 -0 -0 -0 -0 -0 0 -0 nan
nan 0 0 -0 -0 -0 -0 -0 -0 0 0 0 0 0 0 0 0 0 0 0 0 0 0 0 0 0 0 0 0 0 1 1 1 2 2 1 1 0 0 0 0 0 0 -0 -0 -1 -0 -0 -0 -0 0 0 0 0 0 0 0 0 0 0 0 0 -0 0 0 0 -0 -1 nan
nan -0 -0 -0 -0 -0 -0 -0 -0 0 0 0 0 0 0 0 0 0 0 0 0 0 0 0 0 0 0 0 0 0 1 1 1 1 1 1 1 0 -0 -1 -1 -1 -0 0 -0 -0 -0 -0 -0 0 0 0 0 0 0 0 0 0 0 0 0 0 0 0 0 -0 -1 -1 nan
nan -0 -0 -0 -0 -0 -0 -0 -0 0 0 0 0 0 0 0 0 0 0 0 0 0 0 0 0 0 0 0 0 0 0 1 1 1 0 0 0 -0 -1 -1 -1 -1 -0 1 0 0 0 0 0 0 0 0 0 0 0 0 0 0 -0 -0 -0 -0 0 0 -0 -1 -1 -1 nan
nan -0 -0 -0 -0 -0 -0 -0 -0 0 0 0 0 0 0 0 0 0 0 0 0 0 0 0 0 -0 -0 -0 -0 -0 0 0 0 0 0 0 0 0 -0 -1 -1 -1 -0 1 1 1 0 0 1 1 1 1 1 1 1 0 -0 -0 -0 -0 -0 -0 -0 -1 -1 -1 -1 -0 nan
nan -0 -0 -0 -0 -0 -0 -0 0 0 0 0 0 0 0 0 0 1 0 0 0 0 0 0 0 -0 -0 -0 -0 -0 0 0 0 0 0 0 0 0 0 -0 -1 -1 -0 -0 1 1 0 0 1 1 1 0 1 0 0 -0 -0 0 0 0 0 -0 -0 -0 -0 -0 0 0 nan
nan -0 -0 -0 -0 -0 -0 0 0 0 0 0 0 0 0 0 0 1 0 0 0 0 0 -0 -0 0 0 0 0 -0 -0 0 0 0 0 0 0 0 0 0 -0 0 -0 -1 -1 -1 -0 0 1 1 0 0 0 0 0 0 0 0 0 0 0 0 0 0 0 0 -0 0 nan
nan -0 -0 -0 -0 -0 -0 -0 -0 -0 -0 0 0 0 0 0 0 0 0 0 0 0 -0 -0 -0 0 0 0 0 0 0 -0 -0 -0 0 0 0 0 0 0 0 0 0 -1 -1 -1 -1 0 1 1 0 0 -0 -0 0 0 0 0 0 0 0 0 0 -0 -0 -1 -1 -0 nan
nan 0 0 0 0 -0 -0 -0 -0 -0 -0 -0 0 0 0 0 0 0 0 0 0 -0 -0 -0 -0 -0 -0 0 0 0 0 -0 -0 -0 -0 -0 -0 -0 -0 -0 0 0 0 -0 -0 -1 -1 0 0 0 0 0 -0 -0 -0 -0 -0 -0 -0 -0 -0 -0 -0 -1 -1 -1 -1 -0 nan
nan 0 0 0 0 -0 -0 -0 -0 -0 -0 -0 -0 -0 0 0 0 0 0 0 0 0 -0 -0 -0 -0 -0 -0 -0 -0 -0 -0 -0 -0 -0 -0 -0 -0 -0 -0 -0 -0 0 0 -0 -0 0 0 0 0 0 0 -0 -0 -0 -0 -0 -0 -0 -0 -0 -0 -1 -1 -1 -1 -0 0 nan
nan 0 0 0 -0 -0 0 0 -0 -0 -0 -0 -0 -0 -0 -0 0 0 0 0 0 0 -0 -0 -0 -0 -0 -0 -0 -0 -0 -0 -0 -0 -0 -0 -0 -0 -1 -1 -1 -1 -0 -0 0 1 1 0 -0 -0 0 0 -0 -0 -0 -0 -0 0 0 0 0 -0 -0 -0 -0 0 0 0 nan
nan -0 -0 -0 -0 -0 0 0 0 -0 -0 -0 -0 -0 -0 -0 0 0 0 0 0 -0 -0 -0 -0 -0 -0 -0 -0 -0 -0 -0 -0 -0 -0 -0 -0 -0 -1 -1 -1 -1 -0 0 0 0 0 -0 -0 -0 -0 -0 -0 -0 -0 -0 -0 0 -0 -0 -0 -0 -0 -0 0 0 0 0 nan
nan -0 -1 -1 -0 -0 0 0 0 -0 -0 -0 -0 -0 -0 -0 -0 -0 0 0 -0 -0 -0 -0 -0 -0 -0 -0 -0 -0 -0 -0 -0 -0 -0 -0 -0 -0 -0 -0 -0 0 0 0 -0 -0 -0 -0 -0 -0 -0 -0 -0 -0 -1 -1 -1 -0 -0 -1 -1 -1 -1 -0 -0 -0 -0 -0 nan
nan -1 -1 -1 -0 -0 0 0 0 0 0 -0 0 0 -0 -0 -0 -0 -0 -0 -0 -0 -0 -0 -0 -0 -0 -0 -0 -0 -0 -0 -0 -0 -0 -0 -1 -1 -0 -0 0 1 0 0 -0 -0 -0 -0 -0 -0 -0 -0 -0 -0 -0 -1 -0 -1 -1 -1 -1 -1 -1 -1 -1 -1 -1 -1 nan
nan -1 -1 -1 -0 0 0 0 0 0 0 0 0 0 -0 -0 -0 -0 -0 -0 -0 -0 0 0 0 -0 -0 -0 -0 -0 -0 -0 -0 -0 -0 -0 -0 -1 -1 -0 0 0 0 0 -0 -0 -0 -0 -0 -0 -0 -0 -0 -0 -0 -0 -0 -0 -0 -0 -0 -0 -0 -0 -0 -0 -1 -1 nan
nan -1 -0 -0 -0 0 0 0 0 0 0 0 0 -0 -0 -0 -0 0 -0 -0 -0 -0 -0 0 0 -0 -0 -0 -0 -0 -0 -0 -0 -0 -0 -0 -0 -0 -0 -1 -0 -1 -0 -0 -1 -0 -0 -1 -0 -0 -0 -0 -0 -0 -0 -0 -0 0 0 0 0 0 0 -0 -0 -0 -0 -0 nan
nan -0 -0 0 0 0 1 1 1 0 0 0 0 0 -0 -0 -0 -0 -0 -0 -0 -0 -0 -0 -0 -0 -0 -0 -0 -0 -0 -0 -0 -0 -0 -0 -0 -0 -0 -0 -1 -1 -1 -1 -1 -0 -0 -1 -1 -1 -0 -0 -1 -1 -1 -1 -1 -0 -0 -0 -0 0 0 -0 -0 -0 -0 -0 nan
nan 0 0 0 1 1 1 1 1 0 0 0 0 0 0 -0 -0 -0 -0 -0 -0 -0 -0 -0 0 0 0 -0 -0 -0 -0 -0 -0 -0 -0 -0 -0 -0 -0 -0 -1 -1 -1 -1 -1 -0 -0 -1 -1 -1 -0 -1 -1 -1 -1 -1 -1 -1 -1 -1 -1 -0 -0 -0 -0 -0 -0 -0 nan
nan 0 0 1 1 1 1 0 0 0 0 0 0 0 0 -0 -0 -0 -0 -0 -0 -0 -0 -0 -0 -0 0 0 0 -0 -0 -0 -0 -0 -0 -0 -0 -0 -0 -0 -0 -0 -1 -2 -1 -0 -0 -0 -0 -0 -0 -0 -1 -1 -1 -1 -1 -1 -1 -1 -1 -1 -1 -0 -0 -0 -0 -0 nan
nan 0 0 1 1 1 0 0 0 0 0 0 0 0 -0 -0 -0 -0 -0 -0 -0 -0 -0 -0 -0 -0 -0 -0 0 -0 -0 -0 -0 -0 -0 -0 -0 -0 -0 -0 -0 -0 -1 -1 -1 -0 -0 -0 -0 -0 -0 -0 -1 -1 -0 -0 -0 -0 -0 -1 -1 -1 -1 -0 -0 -0 -0 -0 nan
nan 0 0 0 1 1 0 0 0 0 0 0 0 -0 -0 -0 -0 -0 -0 -0 -0 -0 -0 -0 -0 -0 -0 -0 -0 0 -0 -0 -0 -0 -0 -0 -0 -0 -0 -0 -0 -0 -1 -0 -0 -0 -0 -0 -0 -0 -0 -0 -1 -0 -0 -0 -0 -0 -0 -0 -0 -0 -0 -0 -0 -0 -0 -0 nan
nan 0 1 0 0 0 0 0 0 -0 -0 0 0 -0 -0 -0 -0 -0 -0 -0 -0 -0 -0 -0 -0 -0 -0 -0 -0 0 0 0 -0 -0 -0 -0 -0 -0 -0 -0 -0 -0 -0 -0 -0 -1 -1 -0 -0 -0 -0 -0 -0 -0 -0 -0 -0 -0 -0 -0 -0 -0 -0 -0 -0 -0 -0 -0 nan
nan 1 1 1 0 0 0 0 0 0 -0 -0 -0 -0 -0 -0 -0 -0 -0 -0 -0 -0 -0 -0 -0 -0 -0 -0 -0 0 0 0 0 0 -0 -0 -0 -0 -0 -0 -0 -0 -0 -0 -0 -0 -1 -0 -0 -0 -0 -0 -0 -0 -0 -0 -0 -0 -0 -0 -0 -0 -0 -0 -0 -0 -0 -0 nan
nan 1 1 1 0 0 0 0 0 0 0 -0 -0 -0 -0 -0 -0 -0 -0 -0 -0 0 0 0 0 0 0 -0 -0 -0 0 0 0 0 0 -0 -0 0 0 -0 -0 -0 -0 -0 -0 -0 -0 0 -0 -0 -0 -0 -0 -0 -0 -0 -0 -0 -0 -0 -0 -0 -0 -0 -0 -0 -0 -0 nan
nan nan nan nan nan nan nan nan nan nan nan nan nan nan nan nan nan nan nan nan nan nan nan nan nan nan nan nan nan nan nan nan nan nan nan nan nan nan nan nan nan nan nan nan nan nan nan nan nan nan nan nan nan nan nan nan nan nan nan nan nan nan nan nan nan nan nan nan nan
Wind_Speed
33 33 33 33 33 32 32 32 31 30 30 29 28 28 28 28 29 29 29 28 28 28 28 29 30 31 32 33 33 34 34 34 34 33 33 32 32 32 32 32 32 31 31 31 31 31 30 29 28 27 26 25 24 24 24 25 25 24 23 22 21 19 18 19 19 19 18 18 18
33 32 32 32 31 31 31 30 30 29 28 27 27 27 27 28 28 28 28 28 27 27 28 29 30 32 33 34 34 35 35 35 35 34 34 33 33 33 32 32 32 31 31 30 30 30 29 29 29 28 26 25 25 25 25 25 25 24 23 21 20 19 19 19 18 17 16 16 16
32 32 32 31 30 30 30 29 28 27 26 25 25 26 26 27 27 27 27 27 27 28 29 30 31 33 34 35 36 36 36 35 35 34 34 34 34 33 32 32 31 30 30 29 29 29 29 29 28 28 26 26 26 27 27 26 25 23 22 21 20 19 19 19 17 16 16 16 15
32 31 31 30 30 29 29 28 26 25 24 24 25 25 26 26 26 26 27 27 28 29 30 31 33 34 34 36 37 36 36 35 34 34 34 34 34 33 32 31 31 30 29 28 28 28 28 28 28 27 27 27 28 28 27 26 25 23 22 21 20 20 20 19 17 16 16 16 16
31 31 30 30 29 29 27 26 25 24 24 24 24 25 25 25 25 26 27 28 29 31 32 33 33 34 35 36 37 37 36 35 34 34 34 35 34 33 32 31 31 30 30 29 28 28 28 28 28 28 28 28 28 28 27 26 25 23 21 20 19 19 19 18 17 17 18 18 17
30 30 30 30 29 28 26 25 24 23 23 23 24 25 25 25 26 27 28 29 31 32 33 33 33 35 36 37 37 37 36 36 35 35 35 34 34 33 33 32 32 32 32 31 30 29 28 28 27 28 27 27 27 27 26 25 24 22 21 19 18 17 18 18 19 19 20 19 18
30 30 30 29 28 27 25 24 23 23 23 23 24 25 26 26 27 28 29 30 31 33 33 34 35 36 37 37 37 36 36 36 36 35 35 35 34 34 34 34 34 34 34 33 32 31 29 28 27 27 27 27 27 26 25 23 22 21 20 19 17 17 17 18 19 20 21 19 18
29 30 30 29 28 26 24 23 23 23 23 24 24 25 26 27 27 28 29 30 32 33 34 35 37 37 37 37 36 36 36 37 36 36 36 36 36 36 36 36 36 36 35 34 33 31 29 28 27 27 26 26 26 24 23 22 21 20 19 18 17 16 17 18 20 20 20 19 16
30 30 30 29 27 25 24 23 22 22 23 24 24 25 26 26 27 28 29 31 31 33 34 36 37 37 37 36 36 36 36 36 37 37 37 37 38 38 39 38 38 37 36 34 33 31 30 28 27 26 25 24 24 22 21 20 19 19 18 17 16 16 17 18 19 20 18 17 15
30 31 30 29 27 25 23 22 22 22 23 23 24 25 25 26 27 28 29 31 32 33 35 37 37 36 36 35 35 36 36 36 37 38 39 40 40 40 41 40 40 39 37 35 34 32 30 28 27 25 24 22 21 20 19 18 18 18 17 17 16 16 16 17 18 18 16 14 12
31 31 30 29 26 24 23 22 21 22 22 23 24 24 25 26 27 28 29 31 32 34 36 37 36 35 34 34 35 35 36 37 39 40 42 42 43 43 43 42 40 39 38 36 34 32 30 29 27 25 23 21 20 18 17 17 17 17 17 17 17 16 15 15 15 15 13 10 9
31 30 30 28 26 24 22 21 21 21 22 23 23 24 25 26 27 29 30 31 33 35 36 35 34 33 33 34 34 36 37 39 41 43 45 45 45 45 44 43 41 40 38 36 33 31 29 28 26 23 21 19 18 17 16 15 16 16 17 17 16 14 13 13 12 11 10 8 8
30 30 29 27 25 23 21 21 21 21 22 22 23 24 25 26 28 29 31 32 34 36 35 34 32 31 32 33 35 37 39 41 43 45 46 46 46 46 45 43 42 41 39 35 31 29 26 24 22 20 18 16 15 15 15 15 15 16 16 16 14 11 10 9 9 9 9 9 10
30 29 28 26 24 22 21 20 21 21 22 22 23 24 26 27 28 30 31 33 35 35 34 32 30 30 32 33 35 37 39 41 43 45 46 45 46 46 45 45 44 42 38 33 29 25 23 20 18 17 16 15 14 14 14 13 13 14 14 13 11 9 7 6 6 8 9 10 11
29 28 27 25 23 21 20 20 20 21 21 22 23 24 26 27 29 30 32 33 34 33 31 30 30 30 32 34 36 37 39 41 43 44 44 44 44 45 46 46 46 43 38 31 26 22 20 18 16 15 15 15 14 14 13 12 11 11 10 9 8 6 6 5 6 8 10 11 12
28 27 26 24 21 20 19 19 20 21 21 22 23 25 26 27 29 30 32 33 33 31 29 28 29 31 33 35 36 37 38 40 42 43 43 42 42 43 45 46 46 43 37 29 25 22 20 18 17 16 17 16 16 15 13 12 11 9 8 7 7 6 7 7 8 9 10 10 12
27 26 24 22 20 19 19 19 20 20 21 22 23 25 26 28 29 31 32 32 31 28 27 27 29 31 34 36 36 37 38 39 42 43 42 41 40 41 43 45 45 42 36 28 25 23 21 19 18 18 18 18 17 16 14 13 11 10 8 8 8 8 9 9 9 9 9 11 14
26 25 23 21 19 18 18 19 19 20 21 22 23 25 26 28 29 31 32 31 28 27 26 27 29 32 34 36 36 36 37 38 41 42 42 40 40 40 41 42 43 40 34 28 25 23 20 18 17 17 17 17 16 15 14 12 11 10 9 8 8 8 8 8 7 8 12 17 18
25 24 22 20 18 18 18 18 19 20 21 22 23 25 26 28 30 31 31 29 26 25 26 28 30 33 35 36 36 35 35 37 39 41 41 40 39 39 40 41 41 40 35 28 27 24 20 17 17 16 16 15 15 13 12 11 11 11 11 11 11 10 9 9 11 15 19 21 19
25 23 21 19 18 17 18 18 18 19 20 22 23 25 26 28 30 31 30 27 25 25 26 28 30 33 35 36 35 35 34 35 37 39 39 38 38 38 39 40 41 40 37 31 29 26 22 18 17 17 17 17 16 15 15 15 17 18 20 21 21 21 20 20 21 22 22 21 19
24 22 20 19 18 17 17 17 18 19 20 21 23 24 26 28 30 30 29 26 24 24 26 28 31 33 35 36 35 35 34 33 34 36 37 37 37 36 37 39 40 40 39 35 32 30 26 21 20 20 21 21 22 21 21 22 24 25 26 26 26 26 26 25 24 23 22 21 20
23 21 20 18 17 17 17 16 17 18 19 21 22 24 26 28 29 29 28 25 24 24 26 28 30 33 34 35 35 34 33 32 32 33 35 36 36 35 36 37 39 39 39 37 35 34 30 26 23 23 24 25 26 25 25 25 25 25 25 25 26 26 26 25 23 22 22 22 22
22 20 19 18 17 16 16 16 16 17 19 20 22 23 25 27 29 29 27 25 24 24 26 28 30 32 33 34 35 34 33 32 31 31 33 35 35 35 35 36 38 38 37 36 35 35 33 30 27 25 25 25 25 25 24 23 23 23 23 24 24 25 26 26 26 25 23 23 22
21 20 18 18 17 16 16 16 16 17 18 20 21 23 25 27 28 28 27 25 24 24 25 27 29 31 33 34 34 34 34 32 31 31 32 34 35 35 35 35 36 36 35 34 33 33 32 31 29 27 26 24 24 24 24 23 22 22 21 22 22 23 24 26 27 26 25 23 23
20 19 18 17 17 16 16 16 17 17 18 19 21 22 24 26 27 28 27 26 24 24 25 26 28 30 32 33 34 34 34 33 31 30 31 32 34 35 35 34 34 34 33 32 32 31 30 29 29 28 27 26 26 26 27 26 25 24 23 24 24 25 27 28 28 26 24 23 23
20 19 18 17 17 17 17 17 17 17 18 19 20 21 23 25 26 27 27 26 25 24 24 26 27 29 31 32 33 34 34 33 32 30 30 30 33 34 34 34 33 32 32 32 32 30 28 27 27 27 27 27 27 28 29 29 28 27 27 27 28 29 29 30 29 26 24 22 23
20 19 18 18 18 17 17 17 17 17 18 18 19 21 22 24 25 26 26 26 25 24 24 25 27 28 30 31 32 33 33 33 32 31 29 29 30 33 34 33 32 30 30 31 32 31 28 25 24 24 25 26 26 27 27 28 27 26 26 26 26 27 27 27 26 25 24 23 23
21 20 19 19 18 18 18 18 18 18 18 18 19 20 21 23 24 25 26 25 24 24 24 25 26 27 28 30 31 32 32 32 32 31 29 28 28 30 32 33 32 30 29 30 32 31 29 26 23 22 22 22 23 25 26 26 26 26 25 24 24 23 22 22 22 22 23 23 22
21 20 20 20 19 19 19 19 19 19 19 19 19 19 20 22 23 24 25 25 24 24 24 24 25 26 27 29 30 30 30 31 31 31 30 28 27 28 30 32 32 30 29 29 31 31 30 27 24 22 20 19 20 22 23 25 26 26 25 24 23 22 21 20 20 21 21 22 21
22 21 21 21 20 20 20 19 19 19 19 18 18 19 20 21 23 24 25 24 23 23 23 23 23 25 26 27 28 29 29 29 30 30 30 29 27 27 28 30 32 32 30 29 31 32 31 28 26 24 21 19 18 18 19 21 22 23 24 24 23 22 21 21 21 21 22 22 21
22 22 22 22 21 21 20 20 20 19 19 18 18 18 19 21 22 24 24 24 23 22 21 22 22 23 25 26 27 28 28 28 28 29 29 29 28 27 26 28 31 33 32 29 30 32 32 30 28 26 23 21 18 17 16 17 18 19 20 20 21 21 21 21 22 22 22 23 24
22 23 23 22 22 22 21 21 20 19 18 18 18 18 19 20 22 23 24 23 21 21 21 21 22 23 24 25 26 27 27 27 27 27 28 28 28 27 26 26 29 32 33 31 30 31 32 31 29 27 26 24 21 18 17 16 16 16 16 16 17 17 18 18 19 20 20 22 24
22 23 23 23 23 23 22 21 20 19 18 18 17 17 18 19 21 23 23 22 20 20 20 21 22 23 23 24 25 26 26 26 26 26 27 27 27 26 26 25 26 30 33 33 31 31 32 31 29 28 27 26 24 22 20 18 16 16 16 16 15 15 15 15 15 16 17 18 21
22 22 23 23 23 23 22 21 21 19 18 17 17 17 18 19 21 23 23 21 20 19 20 21 21 22 22 23 24 24 25 25 25 25 26 26 26 26 26 25 25 27 30 33 32 31 31 32 30 29 28 27 27 26 24 22 21 19 19 18 17 16 15 14 14 14 14 14 15
21 22 23 23 23 23 22 22 21 19 18 17 17 17 18 19 21 22 22 20 19 19 19 20 21 21 21 21 21 22 23 24 24 24 25 26 26 26 25 25 24 25 27 31 32 30 30 31 31 29 28 28 28 28 28 27 26 24 23 22 21 19 18 16 15 14 13 12 12
21 22 23 23 23 23 22 21 21 19 18 18 17 18 19 20 20 21 20 20 19 20 20 21 21 21 20 20 20 21 22 22 22 23 24 25 25 26 25 24 24 23 25 28 31 31 30 30 31 30 29 28 29 29 29 29 28 27 26 26 25 24 22 20 18 17 15 14 12
21 22 22 23 23 23 22 21 20 19 19 18 18 18 19 19 19 19 19 20 20 21 22 22 21 21 20 19 19 19 20 20 21 22 23 24 25 25 25 24 23 23 23 26 29 30 29 28 30 31 30 29 29 30 30 29 29 29 28 28 27 26 25 23 22 21 20 18 15
21 21 22 23 23 22 22 21 20 19 19 18 18 18 19 19 18 18 18 19 21 22 23 22 22 21 19 18 17 18 18 19 19 20 21 22 23 24 24 24 23 22 22 24 27 29 29 28 29 30 30 29 30 30 30 30 30 30 29 29 29 28 27 26 25 24 24 22 20
21 21 22 22 22 22 22 21 20 19 18 18 18 18 18 18 17 17 17 19 20 22 22 22 21 20 18 17 16 16 17 17 18 19 20 21 22 22 23 23 23 22 21 22 25 27 29 28 28 28 29 29 29 30 30 31 31 30 30 30 29 29 28 27 27 26 26 26 24
20 21 21 22 22 22 22 21 19 18 18 18 18 18 18 17 16 16 16 18 19 21 21 21 20 19 18 16 16 15 16 16 17 18 19 20 20 21 22 22 22 22 21 21 22 24 27 28 27 27 28 29 29 29 30 31 31 31 31 31 30 30 29 28 28 28 28 28 27
20 20 21 21 22 22 22 21 20 18 17 17 17 18 17 16 15 15 15 17 18 20 20 19 19 18 17 16 15 15 15 16 17 17 18 19 20 20 21 21 22 22 21 20 20 22 24 26 27 27 27 28 28 29 29 30 31 32 32 31 31 30 30 29 29 29 30 30 30
Wind_Direction
349 349 349 348 347 347 347 348 348 348 348 348 349 350 351 352 352 352 351 351 350 349 347 347 347 347 348 349 348 345 343 342 341 339 337 335 334 334 335 335 335 335 334 333 333 331 329 328 326 325 322 319 315 312 311 311 314 316 318 318 318 317 316 314 313 313 312 310 306
350 350 350 350 349 349 349 350 351 351 350 350 351 352 353 354 353 353 352 353 353 352 350 348 349 349 349 348 345 344 342 340 339 337 334 333 333 333 334 334 335 335 335 334 332 330 328 326 325 322 319 317 315 313 313 315 318 319 320 319 318 316 314 313 314 315 314 311 307
352 352 352 352 352 352 352 352 353 353 353 353 354 355 356 356 356 355 355 356 357 356 354 351 350 350 348 345 344 342 340 338 336 334 332 332 332 333 334 334 334 335 335 334 332 330 328 326 323 320 317 315 315 315 315 318 321 322 321 320 317 314 312 312 315 317 317 313 309
353 354 354 354 354 354 354 355 355 356 356 357 357 358 359 360 360 359 358 358 359 357 355 353 351 348 345 343 342 341 339 337 335 333 332 332 333 334 334 333 333 332 332 332 330 328 327 325 322 318 315 314 315 315 317 320 323 323 321 319 316 313 312 312 315 318 319 318 317
355 355 355 356 356 356 357 357 358 359 360 0 1 2 3 3 3 3 1 359 358 357 355 353 349 346 343 342 341 340 339 337 335 334 333 333 334 334 333 332 330 329 328 327 326 325 324 323 320 317 315 314 314 315 318 322 324 324 322 319 315 312 311 312 313 317 321 324 325
355 356 356 357 358 358 359 359 1 2 3 4 5 6 6 6 6 4 1 359 358 357 355 351 348 345 343 343 342 341 340 339 338 337 335 333 333 332 331 329 327 326 324 323 322 322 322 321 318 316 314 313 313 316 321 325 326 326 323 319 314 310 309 309 312 318 325 330 332
356 357 358 359 359 360 0 1 3 5 7 8 10 10 9 8 6 4 1 359 357 356 353 350 347 346 345 344 343 342 342 341 340 339 337 334 332 330 329 327 326 325 323 322 321 321 321 320 317 314 314 314 315 319 324 328 328 327 323 319 313 310 309 311 317 324 330 334 335
357 358 359 360 1 2 2 4 6 8 11 12 13 12 10 8 5 2 360 358 356 354 351 349 348 347 346 346 345 344 343 343 341 339 337 334 332 330 328 327 326 325 325 324 323 323 322 320 317 315 315 317 319 323 328 332 331 328 323 318 315 314 314 317 323 329 334 335 334
358 359 0 1 2 3 5 7 9 12 14 15 14 13 11 8 4 1 359 357 355 353 351 349 348 348 348 348 347 346 345 343 341 338 336 335 333 331 331 330 328 328 327 327 326 326 325 323 320 318 318 320 323 327 332 335 334 330 325 321 319 319 320 322 327 332 335 335 332
359 1 2 2 3 4 6 9 12 15 16 16 15 13 10 6 3 0 358 356 353 352 350 350 350 350 350 350 349 349 347 344 341 339 338 337 336 335 333 332 331 330 330 330 330 329 328 325 323 322 323 325 326 330 335 338 337 333 328 324 324 322 321 323 328 333 337 337 330
1 2 2 3 4 5 8 11 14 16 17 16 14 11 8 4 1 359 356 354 352 351 351 351 352 352 352 352 352 350 349 347 344 342 341 339 338 337 337 336 335 335 336 336 335 333 331 329 328 328 329 330 331 332 335 338 337 332 327 325 325 322 320 321 328 336 342 343 335
2 3 3 3 4 6 10 13 16 17 17 15 12 9 5 2 359 356 354 352 352 351 352 353 354 354 355 355 354 353 352 351 349 347 344 342 341 342 342 343 343 344 344 344 342 339 336 334 334 335 336 336 335 334 334 334 332 327 324 324 325 321 316 319 330 343 352 354 348
3 3 2 3 4 8 12 15 17 18 17 14 10 7 3 359 356 354 352 352 352 352 353 355 357 357 357 357 357 356 356 356 355 353 350 348 348 349 350 351 352 352 352 351 350 348 345 343 343 343 341 339 338 335 333 331 326 322 322 324 325 320 312 315 333 349 357 356 353
2 2 2 3 5 9 13 16 17 17 15 12 8 4 0 357 354 352 351 352 352 353 354 357 359 0 1 0 0 0 1 1 0 359 358 357 359 359 358 358 358 358 358 358 358 358 356 355 354 352 349 346 344 341 337 333 328 325 325 327 325 317 308 309 329 344 349 348 350
1 1 2 4 7 11 15 17 17 16 14 10 6 2 358 355 353 351 351 352 353 354 357 359 1 3 4 5 4 4 4 5 5 5 6 6 8 7 6 4 3 3 3 4 5 6 7 7 6 4 2 360 358 356 352 348 342 338 334 330 323 317 315 319 329 336 341 345 355
0 1 2 4 8 12 16 18 17 15 12 8 4 0 357 355 353 352 352 353 354 357 0 3 4 5 7 8 8 7 7 8 9 10 10 11 12 12 11 10 8 7 7 8 9 10 12 14 17 17 17 16 16 15 12 8 3 355 345 334 327 328 331 334 334 337 344 357 14
360 0 2 5 9 14 17 18 16 13 10 6 2 359 357 355 353 353 354 355 356 360 3 6 7 8 9 10 10 9 9 10 12 13 14 14 14 14 14 15 14 13 12 11 10 10 13 18 23 26 26 26 26 25 22 17 12 5 354 343 335 331 331 331 333 344 7 31 39
359 1 3 6 11 15 17 17 15 12 8 4 1 359 357 356 355 355 356 357 360 3 5 7 9 10 11 12 11 11 11 12 14 16 17 17 17 16 16 17 17 17 17 15 12 13 16 23 28 30 31 31 30 27 23 18 13 8 2 355 346 338 333 334 349 26 49 54 50
359 1 4 7 12 14 16 16 14 10 6 3 1 359 358 357 357 357 358 0 4 6 7 9 11 13 13 13 13 12 12 13 15 17 19 20 19 19 18 18 19 19 19 18 17 19 23 30 35 38 38 38 36 33 30 29 31 33 35 35 33 30 31 39 55 63 63 58 51
360 2 5 8 11 13 15 14 11 8 4 1 360 359 359 359 359 359 0 3 6 8 9 10 12 14 14 14 14 14 14 14 16 18 20 22 22 21 20 20 20 20 19 19 21 25 30 37 44 47 49 50 51 52 54 57 60 62 62 61 60 60 61 65 68 68 64 58 51
0 3 5 8 10 12 12 11 8 5 2 0 360 360 360 360 1 2 2 4 6 8 10 12 13 14 14 14 14 14 15 15 16 18 21 23 24 24 23 22 22 21 19 17 21 27 33 42 51 56 58 59 61 64 67 70 70 70 69 68 67 66 66 66 67 66 63 58 52
1 3 5 7 8 9 9 8 5 2 0 360 360 360 0 1 2 3 4 4 6 8 11 13 14 15 14 14 14 14 15 16 17 19 21 23 25 26 26 25 24 23 20 16 19 24 31 41 53 60 62 63 64 67 71 73 72 71 69 68 67 65 63 61 60 59 58 56 52
2 3 5 5 5 6 6 4 2 360 359 359 359 360 1 2 3 4 4 4 5 8 11 13 14 15 14 14 14 14 15 16 17 19 21 23 25 27 28 28 27 24 21 18 19 22 27 37 50 59 63 65 66 68 71 72 72 72 71 70 69 66 63 59 56 54 53 53 51
2 3 4 3 3 3 3 1 359 358 358 358 358 359 0 2 3 4 4 4 4 6 9 12 14 14 14 14 15 15 15 15 17 18 21 23 25 27 29 30 29 25 21 18 20 21 24 31 43 54 61 64 66 67 68 68 70 72 73 72 71 69 65 61 57 54 52 51 50
2 3 3 3 2 1 0 359 357 356 356 356 357 358 359 1 3 4 4 4 3 4 7 11 13 14 14 14 14 15 15 15 16 17 19 22 25 27 29 30 30 27 22 19 21 23 24 29 38 48 56 60 62 63 63 64 64 65 66 66 66 65 63 61 59 57 54 51 49
1 2 3 3 2 1 360 357 355 353 353 353 354 356 358 360 2 3 3 3 2 3 5 8 11 12 13 13 14 14 15 15 16 16 17 20 23 26 28 29 30 27 23 21 22 23 24 27 33 41 48 53 55 57 58 58 58 58 58 58 59 59 59 59 59 56 52 47 45
1 3 4 4 4 2 359 355 352 350 350 351 352 354 355 357 360 2 3 2 2 2 3 6 8 10 11 12 13 14 14 15 15 16 16 18 21 24 26 27 28 27 25 23 22 22 23 23 26 32 39 45 49 53 55 55 54 53 51 51 51 52 52 53 53 51 47 42 40
2 5 7 7 6 3 359 355 351 349 348 349 350 351 352 354 357 359 1 1 1 1 2 4 6 8 9 11 12 13 13 14 14 15 15 16 19 22 24 25 26 27 27 26 24 22 22 22 22 24 30 38 46 51 54 55 55 53 50 48 46 44 43 43 44 43 43 41 38
5 8 10 10 8 4 360 355 352 349 347 347 347 348 349 351 354 357 359 360 1 2 2 3 3 5 7 9 10 11 13 13 14 14 14 14 16 19 21 21 22 24 28 29 26 24 23 22 22 21 22 28 38 47 52 54 54 54 53 50 48 45 42 40 39 39 39 38 36
8 11 12 11 8 5 1 357 353 349 347 345 345 345 346 348 351 354 356 358 360 1 2 1 1 2 5 7 8 10 11 13 14 14 14 14 14 16 17 18 18 21 26 30 28 25 23 23 23 23 21 21 26 34 41 45 47 49 50 50 49 47 45 43 41 39 38 36 33
10 12 13 11 8 5 2 358 354 350 347 345 344 344 344 346 349 352 354 356 358 360 0 360 360 1 3 5 6 8 10 12 13 14 14 14 14 14 15 16 17 18 22 29 28 25 23 23 24 25 24 23 21 22 25 29 33 36 38 40 41 41 41 41 40 39 37 35 31
9 11 11 9 7 5 2 358 355 351 348 346 345 343 343 345 348 351 353 355 357 359 360 360 359 359 1 2 4 6 8 10 13 14 15 15 15 14 14 14 17 18 19 25 26 24 22 23 24 25 26 27 26 23 21 19 19 20 21 22 24 26 28 31 33 33 33 33 32
8 8 8 7 5 4 2 359 356 353 350 348 346 344 344 346 349 352 354 356 358 360 0 359 358 358 359 360 1 3 6 9 11 13 15 16 16 15 15 14 16 17 19 21 23 23 21 21 23 25 26 28 29 29 26 23 19 16 13 11 10 9 10 13 17 19 22 25 31
6 6 5 4 4 3 2 360 357 354 352 350 349 347 347 349 351 354 356 359 1 1 1 359 357 356 356 358 359 1 3 6 9 12 15 16 17 17 16 16 16 18 19 18 19 21 21 19 21 23 25 27 29 31 31 30 27 24 21 17 13 9 5 3 4 4 5 9 21
5 4 3 3 3 3 2 360 358 356 354 352 351 351 352 354 355 357 359 1 2 2 0 358 356 354 354 356 357 359 1 4 7 11 14 16 18 18 18 17 15 18 19 16 16 19 20 17 19 21 24 26 28 29 30 31 31 30 29 26 23 19 15 11 8 4 0 358 6
4 3 2 2 2 3 2 0 358 356 355 354 354 354 356 358 359 0 2 3 3 2 360 357 355 353 354 356 357 359 0 2 4 8 12 15 18 19 19 18 16 18 18 15 15 17 17 16 16 18 21 24 26 27 28 28 29 29 29 29 27 25 23 21 19 15 11 5 4
3 2 1 1 2 3 2 360 357 356 355 355 355 357 359 0 1 3 4 4 3 1 359 357 356 356 356 357 358 358 359 360 2 5 9 14 17 19 20 19 18 18 18 17 17 17 16 15 14 15 18 22 24 26 26 26 26 26 26 26 26 25 24 24 23 22 19 16 14
3 2 1 1 2 2 1 360 357 355 354 353 355 357 359 1 2 4 5 5 3 1 360 359 359 359 360 360 359 358 358 358 360 2 6 11 14 17 19 19 19 20 20 20 19 16 14 13 13 13 14 18 22 24 25 25 24 24 24 24 23 23 22 22 23 23 22 21 20
2 1 1 1 2 2 1 360 357 354 351 351 352 355 358 0 2 4 6 5 3 1 0 1 2 2 2 2 360 358 357 358 358 360 2 7 11 14 16 17 18 20 22 23 19 15 12 12 13 12 12 14 17 21 23 24 23 23 22 22 21 21 21 21 22 23 23 22 20
1 1 1 1 2 2 1 360 357 353 349 348 349 352 356 359 360 1 3 3 2 2 2 2 4 4 4 2 360 358 356 357 357 358 359 2 5 8 11 14 17 19 22 24 19 13 10 11 12 12 12 12 13 17 20 21 22 21 20 19 19 18 19 19 21 22 23 22 21
0 1 1 2 2 2 1 0 358 354 349 347 346 348 351 354 355 355 357 359 360 0 1 2 3 4 4 2 360 357 356 356 357 357 356 356 358 1 4 8 13 17 21 24 20 14 10 9 10 11 12 11 10 12 16 18 20 19 18 17 16 16 16 17 19 21 23 23 21
Height
1537 1535 1533 1531 1529 1527 1526 1524 1522 1520 1519 1517 1515 1513 1511 1510 1508 1507 1505 1504 1502 1501 1499 1498 1496 1494 1492 1491 1489 1487 1485 1484 1482 1480 1478 1476 1475 1473 1470 1469 1467 1465 1464 1462 1460 1459 1458 1456 1455 1454 1453 1452 1451 1450 1449 1448 1447 1446 1445 1444 1443 1443 1442 1441 1440 1440 1440 1440 1439
1537 1535 1533 1531 1530 1528 1526 1524 1522 1521 1519 1517 1515 1514 1512 1510 1509 1507 1505 1504 1503 1501 1500 1498 1496 1495 1492 1490 1489 1487 1485 1483 1481 1479 1477 1475 1473 1471 1469 1467 1465 1464 1462 1460 1459 1458 1456 1455 1454 1453 1451 1450 1450 1449 1447 1446 1445 1444 1443 1442 1442 1441 1440 1440 1439 1439 1439 1438 1437
1536 1534 1533 1531 1529 1527 1525 1524 1522 1520 1519 1517 1515 1514 1512 1510 1509 1507 1506 1505 1503 1502 1500 1498 1496 1494 1492 1490 1489 1487 1485 1482 1480 1478 1476 1474 1471 1470 1468 1466 1464 1462 1461 1459 1458 1456 1455 1454 1452 1451 1450 1449 1448 1447 1445 1445 1444 1443 1441 1441 1440 1440 1439 1439 1438 1438 1437 1436 1436
1536 1534 1532 1531 1529 1527 1525 1524 1522 1520 1519 1517 1515 1514 1512 1511 1509 1508 1506 1505 1503 1502 1500 1498 1496 1494 1492 1490 1488 1486 1484 1481 1479 1477 1475 1472 1470 1468 1466 1464 1462 1460 1459 1457 1456 1455 1453 1452 1451 1450 1449 1447 1446 1445 1444 1443 1442 1441 1440 1439 1439 1438 1438 1437 1437 1436 1436 1435 1434
1535 1534 1532 1531 1529 1527 1525 1524 1522 1520 1519 1517 1515 1514 1512 1511 1510 1508 1506 1505 1503 1502 1500 1498 1496 1495 1492 1490 1487 1485 1482 1480 1478 1476 1473 1470 1468 1466 1464 1462 1461 1459 1457 1456 1455 1453 1452 1451 1450 1448 1447 1446 1445 1443 1442 1441 1440 1439 1439 1438 1438 1437 1436 1436 1435 1435 1434 1434 1433
1535 1534 1532 1530 1529 1527 1525 1524 1522 1520 1519 1517 1515 1514 1512 1511 1510 1508 1507 1505 1504 1502 1500 1498 1496 1494 1492 1489 1486 1484 1481 1479 1477 1475 1472 1469 1467 1465 1463 1461 1459 1458 1456 1455 1453 1452 1451 1450 1449 1447 1445 1444 1443 1441 1440 1440 1439 1438 1437 1436 1436 1436 1435 1435 1434 1433 1433 1432 1431
1535 1534 1532 1530 1528 1527 1525 1523 1522 1520 1519 1517 1515 1514 1512 1511 1510 1508 1507 1505 1504 1502 1500 1498 1496 1494 1491 1488 1486 1483 1481 1478 1475 1473 1471 1468 1465 1463 1461 1460 1458 1456 1455 1453 1452 1451 1450 1449 1447 1446 1444 1443 1441 1440 1439 1438 1437 1436 1435 1435 1435 1435 1434 1433 1433 1432 1431 1430 1430
1535 1534 1532 1530 1528 1526 1525 1523 1521 1520 1518 1517 1515 1514 1512 1511 1510 1509 1507 1505 1504 1502 1500 1498 1495 1493 1490 1488 1485 1483 1480 1477 1475 1472 1469 1467 1464 1462 1460 1458 1456 1455 1453 1452 1450 1449 1448 1447 1445 1444 1442 1441 1439 1438 1437 1437 1436 1435 1435 1434 1434 1433 1433 1432 1431 1430 1430 1429 1429
1535 1533 1531 1529 1527 1526 1524 1523 1521 1520 1518 1517 1515 1514 1513 1511 1510 1509 1507 1505 1504 1502 1500 1498 1495 1493 1490 1488 1485 1483 1480 1477 1474 1471 1468 1465 1463 1461 1459 1457 1455 1453 1452 1450 1449 1448 1446 1445 1444 1442 1441 1439 1438 1437 1436 1435 1435 1434 1433 1433 1432 1432 1431 1431 1430 1430 1429 1428 1428
1534 1532 1530 1528 1527 1525 1524 1522 1521 1520 1518 1517 1516 1515 1513 1512 1510 1509 1507 1505 1504 1502 1500 1497 1495 1492 1490 1487 1485 1482 1480 1476 1473 1470 1467 1465 1462 1460 1458 1456 1454 1452 1450 1448 1447 1445 1444 1443 1442 1440 1439 1438 1436 1435 1435 1435 1434 1433 1432 1432 1431 1431 1430 1430 1430 1429 1428 1428 1427
1533 1531 1530 1528 1526 1525 1524 1522 1521 1520 1518 1517 1516 1515 1513 1512 1510 1509 1507 1505 1503 1501 1500 1497 1495 1492 1490 1487 1485 1482 1479 1476 1473 1469 1466 1464 1461 1459 1456 1454 1452 1450 1447 1446 1445 1443 1442 1441 1440 1438 1437 1436 1435 1435 1434 1433 1433 1432 1431 1431 1430 1430 1429 1429 1429 1428 1428 1427 1427
1533 1531 1529 1528 1526 1525 1523 1522 1521 1520 1518 1517 1516 1515 1513 1512 1510 1508 1507 1505 1503 1501 1499 1497 1495 1493 1490 1488 1485 1482 1479 1476 1472 1469 1465 1462 1460 1457 1455 1452 1450 1448 1445 1444 1443 1441 1440 1439 1438 1437 1435 1435 1434 1434 1433 1432 1432 1431 1430 1430 1430 1429 1428 1428 1428 1428 1427 1427 1426
1532 1530 1529 1528 1526 1525 1523 1522 1521 1520 1519 1517 1516 1515 1513 1512 1510 1508 1506 1505 1503 1501 1499 1497 1495 1493 1490 1488 1485 1482 1479 1475 1472 1468 1465 1462 1459 1456 1454 1451 1449 1446 1444 1443 1441 1440 1439 1438 1436 1435 1434 1433 1433 1432 1432 1431 1431 1430 1430 1429 1429 1428 1428 1427 1427 1427 1427 1426 1426
1532 1530 1529 1528 1526 1525 1524 1522 1521 1520 1519 1517 1516 1515 1513 1512 1510 1508 1506 1505 1503 1501 1499 1497 1495 1493 1491 1488 1485 1482 1479 1476 1472 1469 1466 1463 1459 1456 1453 1450 1448 1446 1444 1442 1440 1439 1438 1437 1436 1435 1434 1433 1432 1431 1431 1430 1430 1429 1429 1429 1428 1428 1427 1427 1427 1427 1426 1426 1426
1532 1530 1529 1528 1526 1525 1524 1522 1521 1520 1519 1518 1516 1515 1513 1512 1510 1508 1507 1505 1503 1501 1499 1497 1495 1493 1491 1488 1485 1482 1479 1476 1473 1470 1467 1463 1460 1457 1454 1450 1448 1446 1444 1442 1440 1439 1438 1437 1435 1434 1433 1432 1431 1431 1430 1430 1429 1429 1429 1428 1428 1427 1427 1427 1427 1427 1426 1426 1426
1532 1530 1529 1528 1526 1525 1524 1523 1521 1520 1519 1518 1516 1515 1513 1512 1510 1509 1507 1505 1503 1501 1500 1498 1495 1493 1490 1488 1485 1482 1480 1477 1474 1471 1468 1464 1461 1458 1454 1451 1449 1446 1445 1443 1441 1440 1438 1437 1435 1435 1433 1432 1431 1430 1430 1430 1429 1429 1428 1427 1427 1427 1427 1427 1427 1426 1426 1426 1426
1532 1530 1529 1528 1527 1525 1524 1523 1521 1520 1519 1518 1517 1515 1514 1512 1510 1509 1507 1505 1503 1501 1500 1498 1496 1493 1490 1488 1485 1483 1480 1477 1475 1472 1469 1466 1462 1459 1456 1453 1450 1448 1446 1444 1442 1440 1439 1437 1436 1435 1434 1433 1432 1431 1430 1430 1429 1429 1428 1428 1427 1427 1427 1427 1427 1427 1427 1427 1427
1532 1531 1529 1528 1527 1525 1524 1523 1522 1520 1520 1518 1517 1515 1514 1512 1510 1509 1507 1505 1504 1502 1500 1498 1496 1494 1491 1488 1485 1483 1480 1478 1475 1473 1470 1467 1464 1461 1458 1455 1452 1450 1448 1446 1444 1441 1440 1438 1437 1436 1435 1434 1433 1432 1431 1430 1430 1429 1429 1428 1428 1427 1427 1427 1427 1427 1427 1427 1427
1532 1531 1529 1528 1527 1525 1524 1523 1522 1521 1520 1518 1517 1515 1514 1513 1511 1509 1507 1505 1504 1502 1500 1498 1496 1494 1491 1488 1486 1484 1481 1479 1476 1474 1471 1469 1466 1463 1460 1457 1455 1452 1450 1449 1445 1443 1441 1439 1438 1437 1435 1435 1434 1433 1432 1431 1430 1430 1429 1429 1428 1427 1427 1427 1427 1428 1428 1428 1428
1532 1530 1529 1528 1527 1525 1524 1523 1522 1521 1520 1518 1517 1516 1514 1513 1511 1509 1507 1505 1504 1502 1500 1499 1496 1493 1491 1489 1487 1485 1482 1480 1478 1475 1473 1470 1468 1465 1462 1459 1456 1454 1453 1452 1448 1445 1443 1441 1439 1438 1436 1435 1434 1433 1432 1432 1431 1430 1430 1429 1429 1428 1428 1428 1428 1429 1429 1429 1429
1532 1530 1529 1528 1527 1525 1524 1523 1522 1521 1520 1519 1517 1516 1514 1513 1511 1509 1507 1506 1504 1503 1501 1499 1496 1494 1491 1489 1487 1485 1483 1481 1479 1477 1474 1472 1469 1467 1464 1461 1458 1456 1455 1455 1451 1448 1445 1443 1440 1439 1437 1436 1435 1434 1433 1433 1432 1431 1430 1430 1429 1429 1429 1429 1429 1430 1430 1430 1430
1532 1530 1529 1528 1527 1525 1524 1523 1522 1521 1520 1519 1517 1516 1515 1513 1511 1510 1508 1506 1505 1503 1501 1499 1496 1494 1492 1490 1488 1486 1484 1482 1480 1478 1475 1473 1471 1468 1465 1463 1460 1458 1457 1457 1455 1451 1448 1445 1443 1440 1439 1437 1436 1435 1435 1434 1434 1433 1432 1432 1431 1431 1431 1431 1431 1431 1431 1431 1431
1532 1530 1529 1528 1527 1525 1524 1523 1522 1521 1520 1519 1517 1516 1514 1513 1511 1510 1508 1506 1505 1503 1501 1499 1497 1495 1493 1491 1489 1487 1485 1483 1481 1479 1477 1475 1472 1470 1467 1464 1461 1460 1459 1459 1457 1454 1451 1448 1445 1443 1441 1440 1438 1438 1437 1436 1435 1435 1434 1434 1433 1433 1433 1433 1433 1433 1433 1432 1432
1532 1531 1529 1528 1527 1525 1524 1523 1522 1521 1520 1518 1517 1516 1514 1513 1511 1510 1508 1506 1505 1503 1501 1499 1497 1495 1493 1491 1490 1487 1485 1483 1481 1479 1477 1475 1473 1470 1468 1465 1463 1462 1462 1460 1459 1457 1454 1450 1448 1445 1444 1442 1441 1440 1439 1438 1438 1437 1436 1435 1435 1434 1434 1435 1435 1435 1434 1433 1433
1532 1531 1530 1528 1527 1525 1524 1523 1522 1520 1520 1518 1517 1516 1515 1513 1511 1510 1508 1506 1505 1503 1501 1499 1497 1495 1493 1492 1490 1488 1486 1484 1482 1480 1478 1476 1474 1471 1469 1467 1465 1465 1464 1462 1460 1458 1456 1454 1451 1449 1447 1445 1444 1442 1441 1440 1440 1439 1438 1437 1436 1435 1434 1434 1435 1435 1435 1434 1433
1532 1531 1530 1528 1526 1525 1524 1523 1522 1520 1519 1518 1517 1516 1514 1513 1511 1510 1508 1506 1505 1503 1501 1500 1498 1496 1494 1492 1490 1489 1487 1485 1483 1481 1479 1477 1475 1472 1470 1468 1467 1467 1466 1464 1462 1460 1457 1456 1454 1452 1450 1448 1446 1445 1444 1442 1442 1441 1440 1439 1437 1436 1435 1434 1435 1435 1435 1435 1434
1532 1531 1529 1528 1526 1525 1524 1523 1521 1520 1519 1518 1517 1515 1514 1513 1511 1510 1508 1507 1505 1504 1502 1500 1498 1496 1495 1493 1491 1489 1487 1485 1484 1482 1480 1478 1476 1474 1472 1470 1469 1469 1468 1466 1463 1461 1459 1457 1456 1454 1452 1450 1449 1447 1446 1445 1444 1442 1441 1440 1439 1438 1437 1436 1436 1435 1435 1435 1435
1532 1531 1529 1528 1526 1525 1524 1523 1521 1520 1519 1518 1516 1515 1514 1513 1511 1510 1509 1507 1505 1504 1502 1500 1499 1497 1495 1493 1492 1490 1488 1486 1485 1483 1481 1479 1477 1475 1473 1471 1470 1470 1469 1467 1465 1462 1460 1458 1457 1455 1454 1452 1451 1449 1448 1446 1445 1444 1443 1441 1440 1440 1439 1438 1438 1437 1436 1436 1435
1532 1530 1529 1527 1526 1525 1524 1522 1521 1520 1519 1517 1516 1515 1514 1513 1511 1510 1509 1507 1505 1504 1502 1500 1499 1498 1496 1494 1492 1491 1489 1487 1485 1484 1482 1480 1478 1476 1475 1473 1471 1470 1470 1468 1465 1463 1461 1460 1458 1456 1455 1454 1452 1450 1449 1448 1446 1445 1444 1443 1442 1441 1440 1440 1439 1438 1437 1437 1436
1531 1530 1529 1527 1526 1525 1523 1522 1521 1520 1518 1517 1516 1515 1514 1512 1511 1510 1509 1507 1505 1504 1502 1501 1500 1498 1496 1495 1493 1491 1490 1488 1486 1485 1483 1481 1479 1477 1475 1474 1472 1470 1470 1469 1466 1464 1462 1461 1459 1458 1456 1455 1454 1452 1450 1449 1448 1447 1446 1445 1444 1443 1442 1441 1440 1439 1438 1438 1437
1531 1530 1529 1527 1526 1525 1523 1522 1520 1519 1518 1517 1516 1515 1513 1512 1511 1510 1508 1507 1505 1504 1503 1502 1500 1499 1497 1495 1494 1492 1490 1489 1487 1485 1484 1482 1480 1478 1477 1475 1473 1471 1470 1470 1467 1465 1464 1462 1460 1459 1457 1456 1455 1453 1452 1450 1449 1448 1447 1446 1445 1444 1443 1442 1441 1440 1439 1438 1437
1531 1530 1528 1527 1525 1524 1523 1521 1520 1519 1518 1517 1515 1514 1513 1512 1511 1510 1509 1507 1506 1504 1503 1501 1500 1499 1497 1496 1494 1493 1491 1490 1488 1486 1485 1483 1481 1479 1478 1476 1474 1472 1471 1472 1468 1465 1464 1463 1461 1460 1458 1457 1455 1454 1453 1451 1450 1449 1448 1447 1446 1445 1445 1443 1442 1441 1440 1438 1437
1531 1530 1528 1527 1525 1524 1522 1521 1520 1519 1517 1516 1515 1514 1513 1512 1511 1510 1509 1507 1506 1504 1503 1501 1500 1499 1497 1496 1495 1493 1492 1490 1489 1487 1485 1484 1482 1480 1478 1477 1475 1473 1472 1473 1469 1466 1465 1464 1463 1461 1460 1458 1456 1455 1454 1452 1451 1450 1449 1448 1447 1446 1445 1444 1443 1442 1440 1439 1438
1531 1530 1528 1527 1525 1524 1522 1521 1520 1518 1517 1516 1515 1514 1513 1512 1510 1509 1508 1507 1505 1504 1503 1502 1500 1499 1498 1497 1495 1494 1492 1491 1490 1488 1486 1485 1483 1481 1479 1477 1476 1474 1473 1473 1470 1467 1466 1465 1464 1463 1461 1459 1457 1456 1455 1453 1452 1451 1450 1449 1448 1446 1445 1444 1443 1442 1441 1440 1438
1531 1530 1528 1526 1525 1524 1522 1520 1519 1518 1517 1516 1515 1514 1513 1512 1510 1509 1508 1507 1506 1505 1503 1502 1501 1500 1498 1497 1496 1494 1493 1491 1490 1489 1487 1485 1484 1482 1480 1478 1477 1475 1474 1473 1472 1469 1467 1465 1465 1464 1462 1460 1458 1457 1455 1454 1453 1452 1450 1450 1448 1447 1446 1445 1443 1442 1441 1440 1439
1531 1529 1528 1526 1525 1523 1522 1520 1519 1518 1517 1516 1515 1514 1513 1511 1510 1509 1508 1507 1506 1505 1503 1502 1500 1499 1498 1497 1496 1495 1493 1492 1490 1489 1488 1486 1484 1482 1481 1479 1478 1476 1474 1473 1472 1470 1468 1466 1465 1465 1463 1461 1460 1458 1456 1455 1454 1452 1451 1450 1449 1448 1446 1445 1444 1443 1441 1440 1439
1531 1529 1528 1526 1525 1523 1522 1520 1519 1518 1517 1516 1515 1514 1512 1511 1510 1509 1508 1507 1505 1504 1503 1502 1500 1499 1498 1496 1495 1495 1494 1492 1491 1490 1488 1486 1485 1483 1481 1480 1479 1477 1475 1474 1472 1471 1469 1467 1465 1465 1464 1462 1460 1459 1457 1456 1455 1453 1452 1451 1450 1448 1447 1446 1444 1443 1442 1440 1439
1531 1529 1528 1526 1525 1523 1522 1520 1519 1518 1517 1515 1515 1514 1513 1511 1510 1509 1508 1507 1505 1504 1503 1501 1500 1499 1498 1497 1496 1495 1494 1493 1491 1490 1489 1487 1485 1484 1482 1481 1479 1478 1476 1474 1473 1472 1471 1469 1466 1465 1464 1463 1461 1460 1458 1457 1455 1454 1453 1451 1450 1449 1448 1446 1445 1443 1442 1440 1440
1531 1530 1528 1526 1525 1523 1522 1520 1519 1518 1517 1515 1515 1514 1513 1511 1510 1509 1508 1507 1506 1504 1503 1502 1500 1499 1498 1497 1496 1495 1494 1493 1492 1490 1489 1488 1486 1485 1483 1482 1480 1479 1477 1475 1474 1473 1472 1470 1467 1466 1465 1464 1462 1461 1459 1458 1456 1455 1454 1452 1451 1450 1448 1447 1445 1444 1442 1441 1440
1531 1530 1528 1526 1525 1524 1522 1521 1519 1518 1517 1515 1515 1513 1512 1511 1510 1510 1509 1507 1506 1505 1504 1502 1501 1500 1498 1497 1496 1495 1494 1493 1492 1491 1490 1488 1487 1485 1484 1483 1481 1480 1478 1476 1475 1475 1473 1471 1469 1466 1465 1465 1463 1462 1460 1459 1457 1456 1454 1453 1451 1450 1449 1447 1446 1444 1442 1441 1440
1531 1530 1528 1527 1525 1524 1522 1521 1520 1518 1517 1515 1514 1513 1512 1512 1511 1510 1509 1508 1506 1505 1504 1503 1501 1500 1499 1498 1496 1495 1494 1493 1492 1491 1490 1489 1487 1486 1485 1483 1481 1480 1478 1477 1476 1475 1474 1472 1470 1468 1466 1465 1464 1463 1461 1460 1458 1456 1455 1454 1452 1451 1449 1448 1446 1444 1443 1441 1440